Moab, UT

10:08 AM MDT on April 28, 2017 (GMT -0600)
Canyonlands

Weather History for KCNY - October, 2014

Change the Weather History Date:

Thursday, October 9, 2014

  Actual Average Record
Temperature  
Mean Temperature 65 °F 57 °F  
Max Temperature 71 °F 72 °F 90 °F (1987)
Min Temperature 58 °F 42 °F 29 °F (1975)
Degree Days  
Heating Degree Days 0 8  
Month to date heating degree days 62 61  
Since 1 July heating degree days 81 119  
Cooling Degree Days 0 0  
Month to date cooling degree days 0 4  
Year to date cooling degree days 1446 1288  
Growing Degree Days 14 (Base 50)    
Moisture  
Dew Point 44 °F    
Average Humidity 52    
Maximum Humidity 67    
Minimum Humidity 36    
Precipitation  
Precipitation T in 0.04 in 1.14 in (1939)
Month to date precipitation 0.09 0.39  
Year to date precipitation 7.09 6.73  
Sea Level Pressure  
Sea Level Pressure 29.86 in    
Wind  
Wind Speed 6 mph (ENE)    
Max Wind Speed 16 mph    
Max Gust Speed 20 mph    
Visibility 10 miles    
Events Rain    
T = Trace of Precipitation, MM = Missing Value Source: NWS Daily Summary

Daily Weather History Graph

Daily Weather History Graph

Search for Another Location

Airport or City:

Trip Planner

Search our weather history database for the weather conditions in past years. The results will help you decide how hot, cold, wet, or windy it might be!

Date:

Astronomy

Oct. 09, 2014 Rise Set
Actual Time 7:22 AM MDT 6:49 PM MDT
Civil Twilight 6:55 AM MDT 7:15 PM MDT
Nautical Twilight 6:25 AM MDT 7:46 PM MDT
Astronomical Twilight 5:54 AM MDT 8:17 PM MDT
Moon 7:49 PM MDT (10/9) 8:40 AM MDT (10/9)
Length of Visible Light 12h 20m
Length of Day
11h 26m
Full, 98% of the Moon is Illuminated
Oct 9
Full
Oct 15
Last Quarter
Oct 23
New
Oct 30
First Quarter
Nov 6
Full

Hourly Weather History & Observations

Time (MDT) Temp. Dew Point Humidity Pressure Visibility Wind Dir Wind Speed Gust Speed Precip Events Conditions
12:53 AM 60.1 °F 44.1 °F 55% 29.87 in 10.0 mi Variable 4.6 mph - N/A   Overcast
1:53 AM 60.1 °F 43.0 °F 53% 29.86 in 10.0 mi Calm Calm - N/A   Overcast
2:53 AM 63.0 °F 39.9 °F 43% 29.86 in 10.0 mi Calm Calm - N/A   Overcast
3:53 AM 62.1 °F 43.0 °F 50% 29.85 in 10.0 mi ESE 8.1 mph - 0.00 in Rain Light Rain
4:53 AM 61.0 °F 44.1 °F 54% 29.84 in 10.0 mi SSE 8.1 mph - 0.00 in   Overcast
5:53 AM 62.1 °F 43.0 °F 50% 29.85 in 10.0 mi East 4.6 mph - N/A   Overcast
6:53 AM 60.1 °F 44.1 °F 55% 29.86 in 10.0 mi SE 8.1 mph - 0.00 in Rain Light Rain
7:53 AM 59.0 °F 46.0 °F 62% 29.87 in 10.0 mi North 5.8 mph - 0.00 in   Overcast
8:53 AM 61.0 °F 48.9 °F 64% 29.88 in 10.0 mi WSW 4.6 mph - 0.00 in Rain Light Rain
9:53 AM 63.0 °F 46.0 °F 54% 29.88 in 10.0 mi West 3.5 mph - 0.00 in   Overcast
10:53 AM 64.0 °F 44.1 °F 48% 29.88 in 10.0 mi NW 12.7 mph - N/A   Overcast
11:53 AM 64.0 °F 44.1 °F 48% 29.87 in 10.0 mi WNW 11.5 mph - N/A   Overcast
12:53 PM 69.1 °F 42.1 °F 38% 29.85 in 10.0 mi NW 11.5 mph - N/A   Mostly Cloudy
1:53 PM 69.1 °F 41.0 °F 36% 29.83 in 10.0 mi WNW 10.4 mph - N/A   Overcast
2:53 PM 70.0 °F 41.0 °F 35% 29.81 in 10.0 mi Variable 4.6 mph - N/A   Partly Cloudy
3:53 PM 70.0 °F 41.0 °F 35% 29.80 in 10.0 mi Variable 4.6 mph - N/A   Mostly Cloudy
4:53 PM 70.0 °F 41.0 °F 35% 29.80 in 10.0 mi East 3.5 mph - N/A   Partly Cloudy
5:53 PM 69.1 °F 42.1 °F 38% 29.81 in 10.0 mi East 15.0 mph - N/A   Scattered Clouds
6:53 PM 64.9 °F 43.0 °F 45% 29.85 in 10.0 mi ENE 15.0 mph - N/A   Mostly Cloudy
7:53 PM 63.0 °F 44.1 °F 50% 29.86 in 10.0 mi ENE 8.1 mph - N/A   Clear
8:53 PM 62.1 °F 46.0 °F 56% 29.87 in 10.0 mi ENE 3.5 mph - N/A   Partly Cloudy
9:53 PM 61.0 °F 46.9 °F 60% 29.89 in 10.0 mi ENE 5.8 mph - N/A   Scattered Clouds
10:53 PM 60.1 °F 46.9 °F 62% 29.90 in 10.0 mi ESE 4.6 mph - N/A   Mostly Cloudy
11:53 PM 59.0 °F 48.0 °F 67% 29.91 in 10.0 mi Calm Calm - N/A   Mostly Cloudy